Location: Mahannah Oil Field
(37.4664°N, 96.6003°W)
Time: 03:06:19
(UTC+00:00)

deb Explorer IX - Pass Details

Date: 23 January 2021
Orbit: 537 x 1102 km, 38.8° (Epoch: 01 March)

Event Time Altitude Azimuth Distance (km) Brightness Sun altitude
Rises 23:26:27 0° 230° (SW) 3,799 ? 1.8°
Reaches altitude 10° 23:29:24 10° 224° (SW) 2,785 ? 1.3°
Maximum altitude 23:35:46 46° 154° (SSE) 1,221 ? 0.1°
Drops below altitude 10° 23:41:19 10° 83° (E) 2,428 ? -0.9°
Enters shadow 23:43:28 - 77° (ENE) 3,182 ? -1.3°
Sets 23:43:43 0° 77° (ENE) 3,271 - -1.3°
